GB-0356 weather

Chilsfold Farm Airstrip
England, United Kingdom

Public forecast

Using degrees Celsius for public forecast. Weather courtesy of forecast.io.

METAR (pilot weather report)

Closest report is Farnborough Airport, 14.7 nm (27.2 km) NNW. Retrieved 2018/12/13 17:20 UTC (0 seconds ago):

EGLF 131720Z 07008KT CAVOK 01/M03 Q1017

TAF (pilot weather forecast)

Forecast is more than 12 hours old.

Closest forecast is Farnborough Airport, 14.7 nm (27.2 km) NNW. Retrieved 2016/04/18 18:00 UTC (3 years ago):

TAF EGLF 181658Z 1818/1821 26008KT 9999 BKN040